[[{"header":{"parameterUnit":"m.s-1","parameterCategory":1,"la1":30.2991,"la2":30.254,"lo1":-89.0895,"lo2":-89.0444,"dy":0.0017,"dx":0.0017,"nx":28,"ny":28,"refTime":"2024-02-12T09:00:00:Z","depth":0,"parameterNumber":2,"parameterNumberName":"U-component_of_WINDS"},"data":[0,0,0,0,0,0,0,0,0,0,0,0,0,0,0,0,0,0,0,0,0,0,0,0,0,0,0,0,0,0,0,0,0,0,0,0,0,0,0,0,0,0,0,0,0,0,0,0,0,0,0,0,0,0,0,0,0,0,5.7014,5.7015,0,5.713,5.7132,5.7133,5.7109,5.7107,5.7104,5.7102,5.7226,5.7231,5.7236,0,0,0,0,0,0,0,0,0,0,0,0,0,5.6776,5.678,5.7014,5.7015,5.7016,5.713,5.7132,5.7133,5.7109,5.7107,5.7104,5.7101,5.7224,5.723,5.7237,0,0,0,0,0,0,0,0,0,0,0,0,0,5.6885,5.6782,5.7013,5.7018,5.702,5.713,5.7132,5.7134,5.711,5.7106,5.7103,5.71,5.7222,5.723,5.7237,5.7351,0,0,5.7262,5.7265,0,0,0,0,0,0,0,0,5.6879,5.6893,5.7016,5.7018,5.702,5.7102,5.7093,5.7207,5.7111,5.7076,5.7102,5.7099,5.7187,5.7198,5.7227,5.7357,5.7362,5.7262,5.7267,5.7271,5.7273,0,0,0,0,0,0,0,5.6871,5.6888,5.706,5.7018,5.702,5.7016,5.7028,5.7115,5.7148,5.7078,5.7077,5.7091,5.7188,5.7219,5.723,5.7364,5.7262,5.7269,5.7274,5.7277,5.7598,5.7602,0,0,0,0,0,0,5.6861,5.6882,5.7056,5.7063,5.694,5.7023,5.7037,5.7079,5.7147,5.7155,5.7094,5.7089,5.7207,5.722,5.7234,5.7375,5.7271,5.7278,5.7283,5.7595,5.7599,5.7603,0,0,0,0,0,0,5.6856,5.6877,5.7051,5.6972,5.6994,5.7031,5.7078,5.7083,5.7114,5.7159,5.7165,5.7119,5.7205,5.7223,5.7323,5.7379,5.7282,5.7289,5.759,5.7596,5.7601,5.7655,0,0,0,0,0,0,5.6849,5.6875,5.6917,5.6973,5.6999,5.7137,5.7082,5.7087,5.7128,5.7123,5.7184,5.7192,5.7204,5.7311,5.7331,5.7388,5.7295,5.7585,5.7593,5.76,5.7649,5.7662,5.7673,0,0,0,0,0,5.6841,5.6927,5.6919,5.694,5.7051,5.714,5.7154,5.7166,5.7132,5.7176,5.7205,5.719,5.7369,5.7322,5.7344,5.7404,5.7582,5.7591,5.7599,5.7643,5.7659,5.7673,0,0,0,0,0,0,5.6876,5.6935,5.6926,5.7033,5.7082,5.7136,5.7191,5.7182,5.7242,5.7236,5.7249,5.7263,5.7366,5.7395,5.7341,5.752,5.7471,5.7484,5.7497,5.7513,5.7525,5.7517,5.7302,0,0,0,0,0,5.6897,5.6962,5.701,5.71,5.7125,5.7154,5.7193,5.7198,5.7249,5.727,5.7306,5.7358,5.7427,5.7471,5.7536,5.7653,5.7668,5.7705,5.7718,5.7728,5.7739,5.7807,5.7825,5.7631,5.7631,5.7631,0,0,5.6939,5.6979,5.7019,5.7108,5.7146,5.7216,5.7171,5.7246,5.7299,5.7281,5.7379,5.7408,5.7467,5.7577,5.7627,5.7604,5.7796,5.7738,5.7746,5.7752,5.7818,5.7836,5.7852,5.7637,5.7636,5.7635,0,0,5.7053,5.7088,5.7169,5.7209,5.7267,5.7287,5.7306,5.7362,5.7381,5.7479,5.7468,5.7532,5.7649,5.7693,5.773,5.7865,5.7854,5.7886,5.7951,5.8016,5.8032,5.8045,5.8096,5.8114,5.7897,5.7897,5.7897,0,5.7098,5.7201,5.7211,5.7288,5.7329,5.7317,5.7401,5.7439,5.7517,5.7546,5.7519,5.7668,5.7706,5.7828,5.7861,5.7891,5.7916,5.7879,5.8028,5.8042,5.8055,5.8104,5.8123,5.7901,5.79,5.79,5.7899,0,5.7257,5.7329,5.7387,5.7462,5.751,5.7589,5.7614,5.7661,5.7663,5.7687,5.7789,5.7835,5.7911,5.794,5.7942,5.8064,5.8048,5.8025,5.7976,5.8077,5.8123,5.8142,5.7906,5.7904,5.7903,5.7902,0,0,5.7394,5.7476,5.7498,5.7533,5.7599,5.7656,5.7737,5.7811,5.7853,5.7907,5.7978,5.8079,5.8058,5.8101,5.8109,5.8166,5.8274,5.8136,5.8138,5.8162,5.8415,5.8433,5.8455,5.8267,5.8271,5.8274,5.8411,0,5.7516,5.7657,5.767,5.7798,5.7867,5.7858,5.7929,5.7979,5.8004,5.8067,5.8095,5.8168,5.8134,5.816,5.8217,5.8249,5.8325,5.8239,5.8336,5.8339,5.8322,5.8478,5.8497,5.8624,5.8429,5.8432,5.8434,0,5.7675,5.7736,5.787,5.793,5.7959,5.8023,5.8094,5.8154,5.8211,5.8226,5.8275,5.8276,5.8363,5.8311,5.8432,5.8373,5.8414,5.8436,5.8442,5.8452,5.8393,5.8495,5.8665,5.8685,5.8462,5.846,5.8458,0,5.7766,5.788,5.7977,5.8007,5.8078,5.8124,5.8156,5.821,5.8255,5.8318,5.8348,5.842,5.846,5.8517,5.8539,5.8498,5.8661,5.8609,5.8678,5.8677,5.8713,5.8711,5.8893,5.8736,5.8736,5.8735,5.8735,0,5.7901,5.7985,5.8019,5.8078,5.8173,5.8189,5.8283,5.8313,5.8362,5.8429,5.8426,5.849,5.8513,5.8582,5.86,5.87,5.8717,5.8733,5.8738,5.8735,5.8733,5.8763,5.8755,5.874,5.8739,5.8738,5.8737,0,5.8018,5.8044,5.8149,5.8208,5.8226,5.8293,5.8345,5.8404,5.8429,5.8515,5.8536,5.8575,5.8656,5.8683,5.8781,5.8793,5.891,5.8906,5.8891,5.8892,5.896,5.8954,5.9169,5.92,5.902,5.9022,5.9023,0,5.8103,5.8168,5.8235,5.8279,5.8313,5.8385,5.8431,5.845,5.8499,5.8571,5.8623,5.8703,5.8768,5.8898,5.8937,5.9013,5.9011,5.9082,5.9023,5.9019,5.9016,5.9012,5.9021,5.9093,5.9095,5.9096,5.9098,0,5.8253,5.8264,5.833,5.8402,5.8457,5.8515,5.8571,5.8608,5.8636,5.8692,5.8774,5.8825,5.8926,5.9007,5.9085,5.912,5.9116,5.9116,5.9136,5.9135,5.9125,5.9134,5.8923,5.9111,5.911,5.9109,5.9108,5.9107,5.8359,5.8417,5.8474,5.8549,5.8594,5.8647,5.8706,5.8739,5.8808,5.8891,5.8899,5.8989,5.9048,5.9153,5.9192,5.9265,5.9245,5.9274,5.9281,5.9289,5.9295,5.9112,5.9279,5.9278,5.9278,5.9278,5.9277,0,5.8511,5.8548,5.8616,5.8696,5.8756,5.8745,5.8807,5.8859,5.8938,5.8993,5.9058,5.9155,5.9234,5.928,5.936,5.941,5.941,5.943,5.9428,5.9437,5.9307,5.9282,5.9429,5.9429,5.9429,5.9429,5.9429,5.9429,5.8597,5.8696,5.8714,5.8836,5.8873,5.8961,5.8998,5.9048,5.9093,5.9201,5.9267,5.9296,5.9349,5.9434,5.9507,5.9519,5.955,5.9573,5.9583,5.9461,5.9445,5.9431,5.9408,5.9579,5.9579,5.9708,5.9709,5.971]},{"header":{"parameterUnit":"m.s-1","parameterCategory":1,"la1":30.2991,"la2":30.254,"lo1":-89.0895,"lo2":-89.0444,"dy":0.0017,"dx":0.0017,"nx":28,"ny":28,"refTime":"2024-02-12T09:00:00:Z","depth":0,"parameterNumber":3,"parameterNumberName":"V-component_of_WINDS"},"data":[0,0,0,0,0,0,0,0,0,0,0,0,0,0,0,0,0,0,0,0,0,0,0,0,0,0,0,0,0,0,0,0,0,0,0,0,0,0,0,0,0,0,0,0,0,0,0,0,0,0,0,0,0,0,0,0,0,0,-1.2262,-1.2262,0,-1.2208,-1.2208,-1.2207,-1.2203,-1.2204,-1.2204,-1.2205,-1.215,-1.2148,-1.2146,0,0,0,0,0,0,0,0,0,0,0,0,0,-1.2362,-1.236,-1.2262,-1.2262,-1.2261,-1.2209,-1.2208,-1.2207,-1.2203,-1.2204,-1.2204,-1.2205,-1.215,-1.2148,-1.2145,0,0,0,0,0,0,0,0,0,0,0,0,0,-1.2315,-1.236,-1.2262,-1.2252,-1.2251,-1.2209,-1.2208,-1.2207,-1.2203,-1.2204,-1.2204,-1.2205,-1.2151,-1.2148,-1.2145,-1.2109,0,0,-1.2136,-1.2135,0,0,0,0,0,0,0,0,-1.2317,-1.2311,-1.2255,-1.2253,-1.2251,-1.2213,-1.2223,-1.2174,-1.2202,-1.2221,-1.2205,-1.2206,-1.217,-1.2165,-1.2153,-1.2106,-1.2104,-1.2136,-1.2134,-1.2132,-1.2132,0,0,0,0,0,0,0,-1.2321,-1.2313,-1.2241,-1.2254,-1.2252,-1.2251,-1.2245,-1.2214,-1.2191,-1.222,-1.2219,-1.2213,-1.2169,-1.2156,-1.2152,-1.2103,-1.2136,-1.2133,-1.2131,-1.213,-1.2025,-1.2024,0,0,0,0,0,0,-1.2326,-1.2316,-1.2243,-1.2239,-1.2287,-1.2249,-1.2242,-1.2225,-1.2192,-1.2187,-1.2212,-1.2213,-1.2161,-1.2156,-1.215,-1.2106,-1.2132,-1.213,-1.2128,-1.2026,-1.2025,-1.2024,0,0,0,0,0,0,-1.2328,-1.2319,-1.2245,-1.2278,-1.2268,-1.2246,-1.2226,-1.2223,-1.221,-1.2186,-1.2182,-1.2203,-1.2162,-1.2154,-1.2119,-1.2104,-1.2128,-1.2126,-1.2027,-1.2025,-1.2024,-1.2017,0,0,0,0,0,0,-1.2331,-1.232,-1.2306,-1.2277,-1.2266,-1.2215,-1.2225,-1.2221,-1.2205,-1.2205,-1.2176,-1.2172,-1.2162,-1.2124,-1.2116,-1.21,-1.2123,-1.2028,-1.2026,-1.2025,-1.2019,-1.2016,-1.2013,0,0,0,0,0,-1.2334,-1.2306,-1.2305,-1.2296,-1.2248,-1.2214,-1.2207,-1.2196,-1.2204,-1.2189,-1.2174,-1.2173,-1.2107,-1.212,-1.2112,-1.2095,-1.2029,-1.2027,-1.2025,-1.202,-1.2017,-1.2014,0,0,0,0,0,0,-1.2332,-1.2302,-1.2301,-1.2262,-1.224,-1.2213,-1.2194,-1.2192,-1.2168,-1.2169,-1.2156,-1.215,-1.2115,-1.2102,-1.2117,-1.2059,-1.2069,-1.2065,-1.2069,-1.2065,-1.2062,-1.2066,-1.2121,0,0,0,0,0,-1.2328,-1.2302,-1.2277,-1.2245,-1.2234,-1.2216,-1.2201,-1.2194,-1.2171,-1.2162,-1.2144,-1.2123,-1.2097,-1.208,-1.2055,-1.2017,-1.2011,-1.2002,-1.1999,-1.1997,-1.1993,-1.1973,-1.1969,-1.2016,-1.2016,-1.2016,0,0,-1.2317,-1.2297,-1.2282,-1.2244,-1.2227,-1.2201,-1.2209,-1.2181,-1.2162,-1.2158,-1.2124,-1.211,-1.2085,-1.2049,-1.2032,-1.2036,-1.1979,-1.1994,-1.1992,-1.199,-1.197,-1.1966,-1.1962,-1.2015,-1.2015,-1.2015,0,0,-1.2285,-1.2267,-1.2239,-1.2222,-1.2195,-1.2184,-1.2177,-1.215,-1.2141,-1.2107,-1.2104,-1.2082,-1.2038,-1.202,-1.2005,-1.1969,-1.1967,-1.1961,-1.1946,-1.1927,-1.1923,-1.1919,-1.1907,-1.1902,-1.1958,-1.1958,-1.1958,0,-1.2275,-1.2236,-1.2225,-1.2197,-1.2181,-1.2177,-1.2149,-1.2133,-1.21,-1.2089,-1.2095,-1.2041,-1.2023,-1.1983,-1.1974,-1.1963,-1.1955,-1.1964,-1.1924,-1.1921,-1.1917,-1.1905,-1.19,-1.1957,-1.1957,-1.1957,-1.1957,0,-1.2225,-1.2198,-1.2179,-1.2147,-1.2129,-1.2102,-1.2087,-1.207,-1.2065,-1.2053,-1.2019,-1.1999,-1.197,-1.196,-1.1955,-1.192,-1.1924,-1.1927,-1.1937,-1.1912,-1.1901,-1.1896,-1.1956,-1.1956,-1.1957,-1.1957,0,0,-1.2188,-1.2152,-1.2145,-1.2132,-1.2103,-1.2083,-1.2055,-1.2028,-1.2014,-1.1992,-1.1969,-1.1933,-1.1936,-1.192,-1.1913,-1.1896,-1.1869,-1.1901,-1.1901,-1.1896,-1.1829,-1.1827,-1.1821,-1.1868,-1.1867,-1.1866,-1.1831,0,-1.2153,-1.2104,-1.2094,-1.2052,-1.2027,-1.2024,-1.2,-1.1981,-1.197,-1.1948,-1.1935,-1.191,-1.1916,-1.1906,-1.1889,-1.1875,-1.1855,-1.1878,-1.1847,-1.1846,-1.1853,-1.1815,-1.1812,-1.178,-1.1827,-1.1826,-1.1825,0,-1.2104,-1.2081,-1.2037,-1.2013,-1.2002,-1.1981,-1.1956,-1.1934,-1.1913,-1.1906,-1.1888,-1.1884,-1.1856,-1.1868,-1.1831,-1.1847,-1.1834,-1.1825,-1.1824,-1.182,-1.1834,-1.181,-1.1769,-1.1764,-1.1818,-1.1818,-1.1819,0,-1.2082,-1.204,-1.2008,-1.1997,-1.1968,-1.1953,-1.1941,-1.192,-1.1904,-1.1882,-1.1872,-1.1847,-1.1834,-1.1815,-1.1804,-1.1814,-1.1768,-1.1779,-1.1761,-1.1762,-1.1751,-1.1752,-1.1707,-1.1743,-1.1743,-1.1743,-1.1743,0,-1.2043,-1.2016,-1.1998,-1.1979,-1.1949,-1.1938,-1.1909,-1.1896,-1.1878,-1.1857,-1.1853,-1.1833,-1.182,-1.1798,-1.179,-1.176,-1.1754,-1.1748,-1.1746,-1.1748,-1.1749,-1.1739,-1.1741,-1.1742,-1.1742,-1.1742,-1.1743,0,-1.2013,-1.2,-1.1965,-1.1941,-1.1934,-1.1913,-1.1893,-1.1874,-1.1864,-1.1837,-1.183,-1.1813,-1.1787,-1.1775,-1.1743,-1.1738,-1.1704,-1.1704,-1.1712,-1.1711,-1.1694,-1.1696,-1.1642,-1.1634,-1.1675,-1.1675,-1.1674,0,-1.1988,-1.1968,-1.1942,-1.1927,-1.1914,-1.189,-1.1875,-1.1864,-1.1848,-1.1823,-1.1807,-1.1782,-1.1761,-1.172,-1.1706,-1.1682,-1.1681,-1.1663,-1.1677,-1.168,-1.1681,-1.1682,-1.168,-1.1661,-1.166,-1.166,-1.166,0,-1.1947,-1.1942,-1.1919,-1.1895,-1.1876,-1.1856,-1.1837,-1.1825,-1.1812,-1.1794,-1.1768,-1.1752,-1.172,-1.1695,-1.1671,-1.1658,-1.1657,-1.1656,-1.165,-1.1652,-1.1658,-1.1655,-1.1705,-1.1657,-1.1657,-1.1657,-1.1657,-1.1658,-1.1919,-1.19,-1.188,-1.1855,-1.1839,-1.1822,-1.1803,-1.1791,-1.1769,-1.1742,-1.1737,-1.171,-1.169,-1.1657,-1.1644,-1.1623,-1.1627,-1.162,-1.1618,-1.1616,-1.1615,-1.1661,-1.1619,-1.1619,-1.1619,-1.1619,-1.1619,0,-1.1877,-1.1864,-1.1841,-1.1815,-1.1796,-1.1796,-1.1775,-1.1759,-1.1735,-1.1717,-1.1697,-1.1668,-1.1644,-1.1628,-1.1604,-1.159,-1.1589,-1.1584,-1.1585,-1.1582,-1.1613,-1.162,-1.1586,-1.1586,-1.1586,-1.1586,-1.1586,-1.1586,-1.1853,-1.1822,-1.1815,-1.1777,-1.1764,-1.1737,-1.1725,-1.171,-1.1695,-1.1663,-1.1643,-1.1633,-1.1616,-1.1591,-1.1569,-1.1565,-1.1557,-1.1552,-1.1548,-1.1577,-1.158,-1.1583,-1.159,-1.155,-1.155,-1.152,-1.1519,-1.1519]}]]